TimeHAST,TemperatureF,Dew PointF,Humidity,Sea Level PressureIn,VisibilityMPH,Wind Direction,Wind SpeedMPH,Gust SpeedMPH,PrecipitationIn,Events,Conditions,WindDirDegrees,DateUTC
12:16 AM,39.2,35.6,87,30.02,4.0,Calm,Calm,-,N/A,,Overcast,0,2012-11-15 10:16:00
12:36 AM,37.4,35.6,93,30.02,5.0,Calm,Calm,-,N/A,,Overcast,0,2012-11-15 10:36:00
12:56 AM,37.4,35.6,93,30.02,3.0,Calm,Calm,-,N/A,,Overcast,0,2012-11-15 10:56:00
1:16 AM,37.4,35.6,93,30.03,3.0,Calm,Calm,-,N/A,,Overcast,0,2012-11-15 11:16:00
1:36 AM,37.4,35.6,93,30.02,5.0,Calm,Calm,-,N/A,,Overcast,0,2012-11-15 11:36:00
1:56 AM,37.4,35.6,93,30.03,5.0,North,3.5,-,N/A,,Overcast,360,2012-11-15 11:56:00
2:16 AM,37.4,37.4,100,30.04,5.0,Calm,Calm,-,N/A,,Overcast,0,2012-11-15 12:16:00
2:36 AM,39.2,37.4,93,30.04,10.0,North,5.8,-,N/A,,Overcast,360,2012-11-15 12:36:00
2:56 AM,37.4,37.4,100,30.03,10.0,NNE,4.6,-,N/A,,Overcast,20,2012-11-15 12:56:00
3:16 AM,37.4,35.6,93,30.03,10.0,North,5.8,-,N/A,,Overcast,360,2012-11-15 13:16:00
3:36 AM,37.4,35.6,93,30.03,10.0,NNW,4.6,-,N/A,,Overcast,340,2012-11-15 13:36:00
3:56 AM,37.4,37.4,100,30.04,10.0,Calm,Calm,-,N/A,,Overcast,0,2012-11-15 13:56:00
4:16 AM,37.4,35.6,93,30.04,10.0,North,5.8,-,N/A,,Overcast,360,2012-11-15 14:16:00
4:36 AM,37.4,35.6,93,30.04,10.0,Calm,Calm,-,N/A,,Mostly Cloudy,0,2012-11-15 14:36:00
4:56 AM,39.2,37.4,93,30.04,10.0,Calm,Calm,-,N/A,,Overcast,0,2012-11-15 14:56:00
5:16 AM,39.2,37.4,93,30.04,10.0,SE,11.5,-,N/A,,Overcast,140,2012-11-15 15:16:00
5:36 AM,41.0,39.2,93,30.04,10.0,Calm,Calm,-,N/A,,Overcast,0,2012-11-15 15:36:00
5:56 AM,41.0,39.2,93,30.04,10.0,ESE,5.8,-,N/A,,Overcast,120,2012-11-15 15:56:00
6:16 AM,41.0,39.2,93,30.04,10.0,SE,11.5,-,N/A,,Overcast,140,2012-11-15 16:16:00
6:36 AM,41.0,39.2,93,30.04,10.0,Calm,Calm,-,N/A,,Overcast,0,2012-11-15 16:36:00
6:56 AM,42.8,39.2,87,30.04,10.0,Calm,Calm,-,N/A,,Overcast,0,2012-11-15 16:56:00
7:16 AM,42.8,39.2,87,30.04,10.0,SE,12.7,-,N/A,,Overcast,140,2012-11-15 17:16:00
7:36 AM,42.8,39.2,87,30.04,10.0,South,10.4,18.4,N/A,,Overcast,180,2012-11-15 17:36:00
7:56 AM,42.8,39.2,87,30.04,10.0,South,15.0,-,N/A,,Overcast,170,2012-11-15 17:56:00
8:16 AM,42.8,39.2,87,30.03,10.0,SSE,12.7,-,N/A,,Overcast,150,2012-11-15 18:16:00
8:36 AM,42.8,39.2,87,30.03,9.0,SSE,4.6,-,N/A,,Overcast,150,2012-11-15 18:36:00
8:56 AM,42.8,41.0,93,30.03,10.0,SE,9.2,-,N/A,,Overcast,140,2012-11-15 18:56:00
9:16 AM,44.6,41.0,87,30.04,7.0,SSE,9.2,-,N/A,,Overcast,150,2012-11-15 19:16:00
9:36 AM,44.6,42.8,93,30.04,6.0,SE,10.4,-,N/A,,Overcast,140,2012-11-15 19:36:00
9:56 AM,44.6,41.0,87,30.04,9.0,South,16.1,26.5,N/A,,Overcast,180,2012-11-15 19:56:00
10:16 AM,44.6,41.0,87,30.04,10.0,South,18.4,-,N/A,,Mostly Cloudy,190,2012-11-15 20:16:00
10:36 AM,44.6,42.8,93,30.04,10.0,South,10.4,-,N/A,,Overcast,180,2012-11-15 20:36:00
10:56 AM,46.4,44.6,93,30.03,10.0,South,17.3,-,N/A,,Overcast,190,2012-11-15 20:56:00
11:16 AM,46.4,44.6,93,30.02,10.0,South,13.8,18.4,N/A,,Overcast,180,2012-11-15 21:16:00
11:36 AM,46.4,42.8,87,30.03,10.0,South,21.9,27.6,N/A,,Overcast,180,2012-11-15 21:36:00
11:56 AM,46.4,42.8,87,30.03,10.0,South,18.4,-,N/A,,Overcast,180,2012-11-15 21:56:00
12:16 PM,46.4,42.8,87,30.02,10.0,South,21.9,-,N/A,,Overcast,180,2012-11-15 22:16:00
12:36 PM,46.4,42.8,87,30.01,10.0,South,16.1,-,N/A,,Overcast,170,2012-11-15 22:36:00
12:56 PM,46.4,44.6,93,30.01,9.0,SSE,18.4,-,N/A,,Overcast,160,2012-11-15 22:56:00
1:16 PM,46.4,44.6,93,30.00,10.0,South,18.4,-,N/A,,Overcast,170,2012-11-15 23:16:00
1:36 PM,46.4,44.6,93,30.00,10.0,South,19.6,-,N/A,,Mostly Cloudy,170,2012-11-15 23:36:00
1:56 PM,46.4,44.6,93,30.00,10.0,South,16.1,-,N/A,,Mostly Cloudy,170,2012-11-15 23:56:00
2:16 PM,46.4,44.6,93,29.99,10.0,South,13.8,-,N/A,,Overcast,170,2012-11-16 00:16:00
2:36 PM,46.4,44.6,93,29.99,9.0,SSE,13.8,-,N/A,,Overcast,160,2012-11-16 00:36:00
2:56 PM,46.4,44.6,93,29.97,8.0,SSE,10.4,-,N/A,,Overcast,160,2012-11-16 00:56:00
3:16 PM,48.2,46.4,93,29.96,8.0,SSE,11.5,-,N/A,,Overcast,160,2012-11-16 01:16:00
3:36 PM,48.2,46.4,93,29.95,10.0,South,15.0,20.7,N/A,,Mostly Cloudy,190,2012-11-16 01:36:00
3:56 PM,48.2,44.6,87,29.95,10.0,South,12.7,20.7,N/A,,Overcast,170,2012-11-16 01:56:00
4:16 PM,48.2,44.6,87,29.94,10.0,South,16.1,-,N/A,,Overcast,170,2012-11-16 02:16:00
4:36 PM,48.2,44.6,87,29.94,10.0,South,13.8,17.3,N/A,,Overcast,170,2012-11-16 02:36:00
4:56 PM,48.2,44.6,87,29.93,10.0,South,18.4,23.0,N/A,,Overcast,180,2012-11-16 02:56:00
5:16 PM,48.2,44.6,87,29.92,10.0,South,21.9,26.5,N/A,,Overcast,170,2012-11-16 03:16:00
5:36 PM,48.2,46.4,93,29.93,7.0,South,18.4,-,N/A,,Mostly Cloudy,170,2012-11-16 03:36:00
5:56 PM,48.2,46.4,93,29.93,6.0,South,17.3,-,N/A,,Overcast,180,2012-11-16 03:56:00
6:16 PM,48.2,46.4,93,29.89,6.0,South,26.5,-,N/A,,Mostly Cloudy,190,2012-11-16 04:16:00
6:36 PM,48.2,44.6,87,29.88,9.0,SSW,25.3,32.2,N/A,,Mostly Cloudy,200,2012-11-16 04:36:00
6:56 PM,46.4,44.6,93,29.88,3.0,South,29.9,35.7,N/A,,Overcast,190,2012-11-16 04:56:00
7:16 PM,46.4,44.6,93,29.90,5.0,South,23.0,-,N/A,,Overcast,180,2012-11-16 05:16:00
7:36 PM,46.4,44.6,93,29.90,10.0,South,18.4,24.2,N/A,,Overcast,170,2012-11-16 05:36:00
7:56 PM,46.4,44.6,93,29.89,10.0,South,19.6,-,N/A,,Overcast,170,2012-11-16 05:56:00
8:16 PM,46.4,44.6,93,29.88,10.0,South,19.6,24.2,N/A,,Overcast,180,2012-11-16 06:16:00
8:36 PM,46.4,44.6,93,29.87,10.0,South,20.7,-,N/A,,Overcast,190,2012-11-16 06:36:00
8:56 PM,48.2,44.6,87,29.87,10.0,South,19.6,-,N/A,,Overcast,190,2012-11-16 06:56:00
9:16 PM,46.4,44.6,93,29.86,10.0,South,18.4,-,N/A,,Overcast,190,2012-11-16 07:16:00
9:36 PM,46.4,44.6,93,29.86,10.0,South,15.0,-,N/A,,Overcast,190,2012-11-16 07:36:00
10:16 PM,48.2,44.6,87,29.87,10.0,South,18.4,26.5,N/A,,Overcast,180,2012-11-16 08:16:00
10:36 PM,46.4,44.6,93,29.86,10.0,South,19.6,-,N/A,,Overcast,190,2012-11-16 08:36:00
10:56 PM,48.2,46.4,93,29.84,10.0,South,13.8,-,N/A,,Overcast,180,2012-11-16 08:56:00
11:16 PM,48.2,44.6,87,29.83,10.0,South,13.8,-,N/A,,Overcast,180,2012-11-16 09:16:00
11:36 PM,46.4,42.8,87,29.84,10.0,South,13.8,-,N/A,,Overcast,170,2012-11-16 09:36:00
11:56 PM,48.2,44.6,87,29.83,9.0,South,16.1,-,N/A,,Overcast,190,2012-11-16 09:56:00